This demonstration page uses our WeatherBlox Daily Observations layout. Learn more.

Left ArrowRight Arrow

Hourly Observations for June 9, 2020

Temp ( °F °C ) Dew Point ( °F °C ) Humidity (%) Winds ( mph kmh ) Pressure ( in mb ) Visibility ( mi km ) Precip ( " mm )
12:53 am 00:53 Clear 46 7.8 44 6.7 93 93 SSW 9 15 30.00 1016 10 16 N/A
1:53 am 01:53 Clear 48 8.9 43 6.1 83 83 SW 14 22 30.01 1016 10 16 N/A
2:53 am 02:53 Cloudy 46 7.8 42 5.6 86 86 WSW 7 11 30.03 1017 10 16 N/A
3:53 am 03:53 Partly Cloudy 47 8.3 42 5.6 83 83 WSW 9 15 30.04 1017 10 16 N/A
4:53 am 04:53 Cloudy 48 8.9 41 5 77 77 SW 15 24 30.04 1017 10 16 N/A
5:53 am 05:53 Mostly Cloudy 47 8.3 39 3.9 74 74 SW 13 20 30.04 1017 10 16 N/A
6:53 am 06:53 Sunny 47 8.3 39 3.9 74 74 SW 10 17 30.05 1018 10 16 N/A
7:53 am 07:53 Sunny 48 8.9 39 3.9 71 71 SW 12 19 30.05 1018 10 16 N/A
8:53 am 08:53 Sunny 52 11.1 42 5.6 69 69 SW 12 19 30.04 1017 10 16 N/A
9:53 am 09:53 Sunny 59 15 39 3.9 48 48 W 17 28 30.03 1017 10 16 N/A
10:53 am 10:53 Sunny 60 15.6 37 2.8 42 42 W 15 24 30.02 1017 10 16 N/A
11:53 am 11:53 Sunny 63 17.2 36 2.2 37 37 W 24 39 30.01 1016 10 16 N/A
12:53 pm 12:53 Mostly Cloudy 63 17.2 35 1.7 35 35 WSW 23 37 30.00 1016 10 16 N/A
1:53 pm 13:53 Partly Cloudy 67 19.4 34 1.1 30 30 W 22 35 29.98 1015 10 16 N/A
2:53 pm 14:53 Partly Cloudy 65 18.3 32 undefined 29 29 W 18 30 29.98 1015 10 16 N/A
3:53 pm 15:53 Mostly Sunny 64 17.8 31 -0.6 29 29 WNW 17 28 29.97 1015 10 16 N/A
4:53 pm 16:53 Mostly Cloudy 65 18.3 33 0.6 31 31 WSW 15 24 29.97 1015 10 16 N/A
5:53 pm 17:53 Partly Cloudy 65 18.3 32 undefined 29 29 W 16 26 29.97 1015 10 16 N/A
6:53 pm 18:53 Sunny 65 18.3 28 -2.2 25 25 WSW 17 28 29.97 1015 10 16 N/A
7:53 pm 19:53 Sunny 64 17.8 30 -1.1 28 28 W 18 30 29.97 1015 10 16 N/A
8:53 pm 20:53 Sunny 60 15.6 33 0.6 36 36 W 12 19 29.97 1015 10 16 N/A
9:53 pm 21:53 Clear 52 11.1 36 2.2 55 55 WSW 9 15 29.98 1015 10 16 N/A
10:53 pm 22:53 Clear 55 12.8 37 2.8 51 51 W 13 20 29.98 1015 10 16 N/A
11:53 pm 23:53 Clear 47 8.3 38 3.3 71 71 SSE 3 6 30.01 1016 10 16 N/A

Powered by AerisWeather